Location: Wanzleben
(52.0609°N, 11.4408°E)
Time: 01:01:11
(UTC+00:00)

Resurs 01 Rocket - Pass Details

Date: 18 September 2020
Orbit: 633 x 645 km, 98.0° (Epoch: 23 October)

Event Time Altitude Azimuth Distance (km) Brightness Sun altitude
Exits shadow 19:19:15 36° 135° (SE) 1,017 2.1 -18.2°
Maximum altitude 19:20:52 61° 71° (ENE) 734 1.7 -18.4°
Drops below altitude 10° 19:25:17 10° 351° (N) 2,054 4.7 -19.0°
Sets 19:27:31 0° 349° (NNW) 2,968 5.7 -19.3°
